Harare, Zimbabwe

4:04 PM CAT on February 26, 2017 (GMT +0200)
Harare International

Weather History for FVHA - May, 2013

Change the Weather History Date:

Monday, May 27, 2013

  Actual Average Record
Temperature  
Mean Temperature 58 °F -  
Max Temperature 74 °F 71 °F 78 °F (2003)
Min Temperature 43 °F 44 °F 42 °F (2005)
Degree Days  
Heating Degree Days 6    
Growing Degree Days 8 (Base 50)    
Moisture  
Dew Point 42 °F    
Average Humidity 57    
Maximum Humidity 87    
Minimum Humidity 18    
Precipitation  
Precipitation 0.00 in 0.00 in - ()
Sea Level Pressure  
Sea Level Pressure 30.22 in    
Wind  
Wind Speed 5 mph ()    
Max Wind Speed 10 mph    
Max Gust Speed -    
Visibility 18.2 miles    
Events      
Averages and records for this station are not official NWS values.
T = Trace of Precipitation, MM = Missing Value Source: Averaged Metar Reports

Daily Weather History Graph

Daily Weather History Graph

Search for Another Location

Airport or City:

Trip Planner

Search our weather history database for the weather conditions in past years. The results will help you decide how hot, cold, wet, or windy it might be!

Date:

Astronomy

May. 27, 2013 Rise Set
Actual Time 6:17 AM CAT 5:27 PM CAT
Civil Twilight 5:54 AM CAT 5:50 PM CAT
Nautical Twilight 5:27 AM CAT 6:17 PM CAT
Astronomical Twilight 5:01 AM CAT 6:44 PM CAT
Moon 8:03 PM CAT (5/27) 8:24 AM CAT (5/27)
Length of Visible Light 11h 56m
Length of Day
11h 09m
Waning Gibbous, 93% of the Moon is Illuminated
May 27
Waning Gibbous
May 31
Last Quarter
Jun 8
New
Jun 16
First Quarter
Jun 23
Full

Hourly Weather History & Observations

Time (CAT) Temp. Windchill Dew Point Humidity Pressure Visibility Wind Dir Wind Speed Gust Speed Precip Events Conditions
12:00 AM 48.2 °F - 41.0 °F 76% 30.24 in - ENE 5.8 mph - N/A   Clear
2:00 AM 48 °F - 40 °F 64%  in 19 mi ENE 3.5 mph - -  
2:00 AM 48.2 °F - 39.2 °F 71% 30.21 in - ENE 3.5 mph - N/A   Clear
5:00 AM 46.4 °F 42.9 °F 41.0 °F 81% 30.21 in - NE 6.9 mph - N/A   Clear
6:00 AM 44.6 °F 40.2 °F 41.0 °F 87% 30.21 in - ENE 8.1 mph - N/A   Clear
7:00 AM 48.2 °F - 42.8 °F 82% 30.21 in - NE 5.8 mph - N/A   Clear
8:00 AM 56 °F - 47 °F 63%  in 19 mi NE 10.4 mph - -  
8:00 AM 55.4 °F - 46.4 °F 72% 30.24 in - NE 10.4 mph - N/A   Clear
9:00 AM 62.6 °F - 46.4 °F 55% 30.27 in - North 5.8 mph - N/A   Clear
10:00 AM 66.2 °F - 44.6 °F 46% 30.27 in - West 5.8 mph - N/A   Clear
11:00 AM 66.2 °F - 42.8 °F 43% 30.27 in - West 8.1 mph - N/A   Clear
2:00 PM 72 °F - 37 °F 18%  in 19 mi West 2.3 mph - -  
2:00 PM 71.6 °F - 37.4 °F 29% 30.18 in - Variable 2.3 mph - N/A   Clear
3:00 PM 73.4 °F - 35.6 °F 25% 30.18 in - Variable 4.6 mph - N/A   Clear
4:00 PM 73.4 °F - 37.4 °F 27% 30.18 in - Variable 2.3 mph - N/A   Clear
5:00 PM 71.6 °F - 37.4 °F 29% 30.18 in - North 2.3 mph - N/A   Clear
6:00 PM 60.8 °F - 41.0 °F 48% 30.18 in - NE 2.3 mph - N/A   Clear
7:00 PM 55.4 °F - 42.8 °F 63% 30.18 in - East 2.3 mph - N/A   Clear
8:00 PM 56 °F - 43 °F 52%  in 16 mi East 3.5 mph - -  
8:00 PM 57.2 °F - 42.8 °F 59% 30.21 in - East 3.5 mph - N/A   Clear
9:00 PM 53.6 °F - 42.8 °F 67% 30.21 in - NNE 4.6 mph - N/A   Clear
10:00 PM 51.8 °F - 42.8 °F 71% 30.24 in - NE 4.6 mph - N/A   Clear
11:00 PM 50.0 °F - 42.8 °F 76% 30.24 in - North 5.8 mph - N/A   Clear